Year,Month,Day,Hour,Minute,Value (Times are PST for temperature in C)
2015,02,18,00,00,3.30
2015,02,18,00,01,3.30
2015,02,18,00,02,3.30
2015,02,18,00,03,3.20
2015,02,18,00,04,3.20
2015,02,18,00,05,3.20
2015,02,18,00,06,3.20
2015,02,18,00,07,3.20
2015,02,18,00,08,3.10
2015,02,18,00,09,3.10
2015,02,18,00,10,3.10
2015,02,18,00,11,3.20
2015,02,18,00,12,3.20
2015,02,18,00,13,3.30
2015,02,18,00,14,3.30
2015,02,18,00,15,3.40
2015,02,18,00,16,3.40
2015,02,18,00,17,3.40
2015,02,18,00,18,3.40
2015,02,18,00,19,3.40
2015,02,18,00,20,3.40
2015,02,18,00,21,3.40
2015,02,18,00,22,3.40
2015,02,18,00,23,3.40
2015,02,18,00,24,3.40
2015,02,18,00,25,3.40
2015,02,18,00,26,3.30
2015,02,18,00,27,3.30
2015,02,18,00,28,3.30
2015,02,18,00,29,3.30
2015,02,18,00,30,3.30
2015,02,18,00,31,3.30
2015,02,18,00,32,3.30
2015,02,18,00,33,3.30
2015,02,18,00,34,3.30
2015,02,18,00,35,3.20
2015,02,18,00,36,3.20
2015,02,18,00,37,3.20
2015,02,18,00,38,3.20
2015,02,18,00,39,3.20
2015,02,18,00,40,3.10
2015,02,18,00,41,3.10
2015,02,18,00,42,3.10
2015,02,18,00,43,3.10
2015,02,18,00,44,3.10
2015,02,18,00,45,3.10
2015,02,18,00,46,3.00
2015,02,18,00,47,3.00
2015,02,18,00,48,3.00
2015,02,18,00,49,3.00
2015,02,18,00,50,3.00
2015,02,18,00,51,3.00
2015,02,18,00,52,3.00
2015,02,18,00,53,3.00
2015,02,18,00,54,3.10
2015,02,18,00,55,3.10
2015,02,18,00,56,3.10
2015,02,18,00,57,3.10
2015,02,18,00,58,3.10
2015,02,18,00,59,3.10
2015,02,18,01,00,3.10
2015,02,18,01,01,3.10
2015,02,18,01,02,3.10
2015,02,18,01,03,3.10
2015,02,18,01,04,3.10
2015,02,18,01,05,3.10
2015,02,18,01,06,3.00
2015,02,18,01,07,3.00
2015,02,18,01,08,3.00
2015,02,18,01,09,2.90
2015,02,18,01,10,2.90
2015,02,18,01,11,2.90
2015,02,18,01,12,2.90
2015,02,18,01,13,2.90
2015,02,18,01,14,2.90
2015,02,18,01,15,2.90
2015,02,18,01,16,2.90
2015,02,18,01,17,2.80
2015,02,18,01,18,2.80
2015,02,18,01,19,2.80
2015,02,18,01,20,2.80
2015,02,18,01,21,2.80
2015,02,18,01,22,2.80
2015,02,18,01,23,2.80
2015,02,18,01,24,2.80
2015,02,18,01,25,2.80
2015,02,18,01,26,2.80
2015,02,18,01,27,2.80
2015,02,18,01,28,2.80
2015,02,18,01,29,2.70
2015,02,18,01,30,2.70
2015,02,18,01,31,2.70
2015,02,18,01,32,2.70
2015,02,18,01,33,2.70
2015,02,18,01,34,2.70
2015,02,18,01,35,2.70
2015,02,18,01,36,2.70
2015,02,18,01,37,2.70
2015,02,18,01,38,2.70
2015,02,18,01,39,2.70
2015,02,18,01,40,2.70
2015,02,18,01,41,2.70
2015,02,18,01,42,2.70
2015,02,18,01,43,2.70
2015,02,18,01,44,2.70
2015,02,18,01,45,2.70
2015,02,18,01,46,2.70
2015,02,18,01,47,2.70
2015,02,18,01,48,2.70
2015,02,18,01,49,2.70
2015,02,18,01,50,2.70
2015,02,18,01,51,2.70
2015,02,18,01,52,2.70
2015,02,18,01,53,2.70
2015,02,18,01,54,2.70
2015,02,18,01,55,2.70
2015,02,18,01,56,2.70
2015,02,18,01,57,2.70
2015,02,18,01,58,2.70
2015,02,18,01,59,2.60
2015,02,18,02,00,2.60
2015,02,18,02,01,2.60
2015,02,18,02,02,2.60
2015,02,18,02,03,2.60
2015,02,18,02,04,2.50
2015,02,18,02,05,2.60
2015,02,18,02,06,2.50
2015,02,18,02,07,2.60
2015,02,18,02,08,2.60
2015,02,18,02,09,2.60
2015,02,18,02,10,2.60
2015,02,18,02,11,2.60
2015,02,18,02,12,2.60
2015,02,18,02,13,2.60
2015,02,18,02,14,2.60
2015,02,18,02,15,2.60
2015,02,18,02,16,2.50
2015,02,18,02,17,2.50
2015,02,18,02,18,2.50
2015,02,18,02,19,2.50
2015,02,18,02,20,2.50
2015,02,18,02,21,2.50
2015,02,18,02,22,2.50
2015,02,18,02,23,2.50
2015,02,18,02,24,2.50
2015,02,18,02,25,2.50
2015,02,18,02,26,2.60
2015,02,18,02,27,2.60
2015,02,18,02,28,2.60
2015,02,18,02,29,2.60
2015,02,18,02,30,2.60
2015,02,18,02,31,2.60
2015,02,18,02,32,2.60
2015,02,18,02,33,2.60
2015,02,18,02,34,2.60
2015,02,18,02,35,2.60
2015,02,18,02,36,2.60
2015,02,18,02,37,2.60
2015,02,18,02,38,2.60
2015,02,18,02,39,2.60
2015,02,18,02,40,2.60
2015,02,18,02,41,2.60
2015,02,18,02,42,2.60
2015,02,18,02,43,2.60
2015,02,18,02,44,2.60
2015,02,18,02,45,2.60
2015,02,18,02,46,2.60
2015,02,18,02,47,2.60
2015,02,18,02,48,2.60
2015,02,18,02,49,2.60
2015,02,18,02,50,2.60
2015,02,18,02,51,2.60
2015,02,18,02,52,2.60
2015,02,18,02,53,2.60
2015,02,18,02,54,2.60
2015,02,18,02,55,2.60
2015,02,18,02,56,2.60
2015,02,18,02,57,2.60
2015,02,18,02,58,2.60
2015,02,18,02,59,2.60
2015,02,18,03,00,2.60
2015,02,18,03,01,2.60
2015,02,18,03,02,2.60
2015,02,18,03,03,2.50
2015,02,18,03,04,2.50
2015,02,18,03,05,2.50
2015,02,18,03,06,2.50
2015,02,18,03,07,2.50
2015,02,18,03,08,2.50
2015,02,18,03,09,2.50
2015,02,18,03,10,2.40
2015,02,18,03,11,2.40
2015,02,18,03,12,2.40
2015,02,18,03,13,2.40
2015,02,18,03,14,2.40
2015,02,18,03,15,2.40
2015,02,18,03,16,2.40
2015,02,18,03,17,2.40
2015,02,18,03,18,2.40
2015,02,18,03,19,2.40
2015,02,18,03,20,2.40
2015,02,18,03,21,2.40
2015,02,18,03,22,2.40
2015,02,18,03,23,2.40
2015,02,18,03,24,2.40
2015,02,18,03,25,2.40
2015,02,18,03,26,2.40
2015,02,18,03,27,2.40
2015,02,18,03,28,2.40
2015,02,18,03,29,2.40
2015,02,18,03,30,2.40
2015,02,18,03,31,2.40
2015,02,18,03,32,2.40
2015,02,18,03,33,2.50
2015,02,18,03,34,2.50
2015,02,18,03,35,2.50
2015,02,18,03,36,2.50
2015,02,18,03,37,2.50
2015,02,18,03,38,2.50
2015,02,18,03,39,2.50
2015,02,18,03,40,2.60
2015,02,18,03,41,2.60
2015,02,18,03,42,2.60
2015,02,18,03,43,2.50
2015,02,18,03,44,2.50
2015,02,18,03,45,2.50
2015,02,18,03,46,2.50
2015,02,18,03,47,2.50
2015,02,18,03,48,2.50
2015,02,18,03,49,2.40
2015,02,18,03,50,2.40
2015,02,18,03,51,2.40
2015,02,18,03,52,2.40
2015,02,18,03,53,2.30
2015,02,18,03,54,2.30
2015,02,18,03,55,2.30
2015,02,18,03,56,2.30
2015,02,18,03,57,2.30
2015,02,18,03,58,2.30
2015,02,18,03,59,2.20
2015,02,18,04,00,2.20
2015,02,18,04,01,2.30
2015,02,18,04,02,2.30
2015,02,18,04,03,2.30
2015,02,18,04,04,2.30
2015,02,18,04,05,2.30
2015,02,18,04,06,2.30
2015,02,18,04,07,2.30
2015,02,18,04,08,2.30
2015,02,18,04,09,2.30
2015,02,18,04,10,2.30
2015,02,18,04,11,2.30
2015,02,18,04,12,2.40
2015,02,18,04,13,2.40
2015,02,18,04,14,2.40
2015,02,18,04,15,2.40
2015,02,18,04,16,2.40
2015,02,18,04,17,2.40
2015,02,18,04,18,2.40
2015,02,18,04,19,2.40
2015,02,18,04,20,2.40
2015,02,18,04,21,2.40
2015,02,18,04,22,2.40
2015,02,18,04,23,2.40
2015,02,18,04,24,2.30
2015,02,18,04,25,2.40
2015,02,18,04,26,2.40
2015,02,18,04,27,2.40
2015,02,18,04,28,2.40
2015,02,18,04,29,2.40
2015,02,18,04,30,2.40
2015,02,18,04,31,2.40
2015,02,18,04,32,2.40
2015,02,18,04,33,2.40
2015,02,18,04,34,2.50
2015,02,18,04,35,2.50
2015,02,18,04,36,2.50
2015,02,18,04,37,2.50
2015,02,18,04,38,2.50
2015,02,18,04,39,2.50
2015,02,18,04,40,2.50
2015,02,18,04,41,2.60
2015,02,18,04,42,2.60
2015,02,18,04,43,2.60
2015,02,18,04,44,2.60
2015,02,18,04,45,2.60
2015,02,18,04,46,2.60
2015,02,18,04,47,2.60
2015,02,18,04,48,2.60
2015,02,18,04,49,2.60
2015,02,18,04,50,2.60
2015,02,18,04,51,2.60
2015,02,18,04,52,2.60
2015,02,18,04,53,2.60
2015,02,18,04,54,2.50
2015,02,18,04,55,2.50
2015,02,18,04,56,2.50
2015,02,18,04,57,2.50
2015,02,18,04,58,2.40
2015,02,18,04,59,2.40
2015,02,18,05,00,2.40
2015,02,18,05,01,2.40
2015,02,18,05,02,2.40
2015,02,18,05,03,2.40
2015,02,18,05,04,2.50
2015,02,18,05,05,2.50
2015,02,18,05,06,2.60
2015,02,18,05,07,2.60
2015,02,18,05,08,2.60
2015,02,18,05,09,2.60
2015,02,18,05,10,2.60
2015,02,18,05,11,2.60
2015,02,18,05,12,2.60
2015,02,18,05,13,2.60
2015,02,18,05,14,2.60
2015,02,18,05,15,2.60
2015,02,18,05,16,2.60
2015,02,18,05,17,2.60
2015,02,18,05,18,2.60
2015,02,18,05,19,2.60
2015,02,18,05,20,2.60
2015,02,18,05,21,2.60
2015,02,18,05,22,2.60
2015,02,18,05,23,2.60
2015,02,18,05,24,2.60
2015,02,18,05,25,2.60
2015,02,18,05,26,2.60
2015,02,18,05,27,2.60
2015,02,18,05,28,2.60
2015,02,18,05,29,2.50
2015,02,18,05,30,2.50
2015,02,18,05,31,2.50
2015,02,18,05,32,2.50
2015,02,18,05,33,2.50
2015,02,18,05,34,2.50
2015,02,18,05,35,2.50
2015,02,18,05,36,2.50
2015,02,18,05,37,2.50
2015,02,18,05,38,2.50
2015,02,18,05,39,2.50
2015,02,18,05,40,2.50
2015,02,18,05,41,2.50
2015,02,18,05,42,2.50
2015,02,18,05,43,2.50
2015,02,18,05,44,2.50
2015,02,18,05,45,2.50
2015,02,18,05,46,2.50
2015,02,18,05,47,2.50
2015,02,18,05,48,2.40
2015,02,18,05,49,2.40
2015,02,18,05,50,2.40
2015,02,18,05,51,2.40
2015,02,18,05,52,2.40
2015,02,18,05,53,2.40
2015,02,18,05,54,2.40
2015,02,18,05,55,2.40
2015,02,18,05,56,2.40
2015,02,18,05,57,2.40
2015,02,18,05,58,2.40
2015,02,18,05,59,2.30
2015,02,18,06,00,2.40
2015,02,18,06,01,2.40
2015,02,18,06,02,2.40
2015,02,18,06,03,2.40
2015,02,18,06,04,2.40
2015,02,18,06,05,2.40
2015,02,18,06,06,2.40
2015,02,18,06,07,2.40
2015,02,18,06,08,2.40
2015,02,18,06,09,2.40
2015,02,18,06,10,2.40
2015,02,18,06,11,2.40
2015,02,18,06,12,2.40
2015,02,18,06,13,2.40
2015,02,18,06,14,2.40
2015,02,18,06,15,2.40
2015,02,18,06,16,2.50
2015,02,18,06,17,2.50
2015,02,18,06,18,2.50
2015,02,18,06,19,2.50
2015,02,18,06,20,2.60
2015,02,18,06,21,2.60
2015,02,18,06,22,2.60
2015,02,18,06,23,2.60
2015,02,18,06,24,2.60
2015,02,18,06,25,2.60
2015,02,18,06,26,2.60
2015,02,18,06,27,2.70
2015,02,18,06,28,2.70
2015,02,18,06,29,2.70
2015,02,18,06,30,2.70
2015,02,18,06,31,2.70
2015,02,18,06,32,2.70
2015,02,18,06,33,2.70
2015,02,18,06,34,2.70
2015,02,18,06,35,2.70
2015,02,18,06,36,2.70
2015,02,18,06,37,2.70
2015,02,18,06,38,2.70
2015,02,18,06,39,2.70
2015,02,18,06,40,2.80
2015,02,18,06,41,2.80
2015,02,18,06,42,2.80
2015,02,18,06,43,2.80
2015,02,18,06,44,2.80
2015,02,18,06,45,2.90
2015,02,18,06,46,2.90
2015,02,18,06,47,2.90
2015,02,18,06,48,2.90
2015,02,18,06,49,2.90
2015,02,18,06,50,2.90
2015,02,18,06,51,2.90
2015,02,18,06,52,2.90
2015,02,18,06,53,2.90
2015,02,18,06,54,2.90
2015,02,18,06,55,2.90
2015,02,18,06,56,2.90
2015,02,18,06,57,2.90
2015,02,18,06,58,2.90
2015,02,18,06,59,2.90
2015,02,18,07,00,2.90
2015,02,18,07,01,2.90
2015,02,18,07,02,2.90
2015,02,18,07,03,2.90
2015,02,18,07,04,2.90
2015,02,18,07,05,2.90
2015,02,18,07,06,2.90
2015,02,18,07,07,2.90
2015,02,18,07,08,3.00
2015,02,18,07,09,3.00
2015,02,18,07,10,3.00
2015,02,18,07,11,3.10
2015,02,18,07,12,3.10
2015,02,18,07,13,3.10
2015,02,18,07,14,3.10
2015,02,18,07,15,3.10
2015,02,18,07,16,3.10
2015,02,18,07,17,3.20
2015,02,18,07,18,3.20
2015,02,18,07,19,3.20
2015,02,18,07,20,3.20
2015,02,18,07,21,3.20
2015,02,18,07,22,3.20
2015,02,18,07,23,3.20
2015,02,18,07,24,3.20
2015,02,18,07,25,3.20
2015,02,18,07,26,3.20
2015,02,18,07,27,3.20
2015,02,18,07,28,3.30
2015,02,18,07,29,3.20
2015,02,18,07,30,3.30
2015,02,18,07,31,3.30
2015,02,18,07,32,3.30
2015,02,18,07,33,3.30
2015,02,18,07,34,3.30
2015,02,18,07,35,3.30
2015,02,18,07,36,3.30
2015,02,18,07,37,3.30
2015,02,18,07,38,3.30
2015,02,18,07,39,3.30
2015,02,18,07,40,3.30
2015,02,18,07,41,3.30
2015,02,18,07,42,3.30
2015,02,18,07,43,3.30
2015,02,18,07,44,3.30
2015,02,18,07,45,3.30
2015,02,18,07,46,3.30
2015,02,18,07,47,3.30
2015,02,18,07,48,3.30
2015,02,18,07,49,3.30
2015,02,18,07,50,3.30
2015,02,18,07,51,3.30
2015,02,18,07,52,3.30
2015,02,18,07,53,3.30
2015,02,18,07,54,3.30
2015,02,18,07,55,3.30
2015,02,18,07,56,3.30
2015,02,18,07,57,3.30
2015,02,18,07,58,3.30
2015,02,18,07,59,3.30
2015,02,18,08,00,3.40
2015,02,18,08,01,3.40
2015,02,18,08,02,3.40
2015,02,18,08,03,3.50
2015,02,18,08,04,3.60
2015,02,18,08,05,3.60
2015,02,18,08,06,3.60
2015,02,18,08,07,3.70
2015,02,18,08,08,3.70
2015,02,18,08,09,3.70
2015,02,18,08,10,3.70
2015,02,18,08,11,3.70
2015,02,18,08,12,3.80
2015,02,18,08,13,3.80
2015,02,18,08,14,3.80
2015,02,18,08,15,3.80
2015,02,18,08,16,3.70
2015,02,18,08,17,3.70
2015,02,18,08,18,3.70
2015,02,18,08,19,3.70
2015,02,18,08,20,3.70
2015,02,18,08,21,3.70
2015,02,18,08,22,3.70
2015,02,18,08,23,3.70
2015,02,18,08,24,3.60
2015,02,18,08,25,3.60
2015,02,18,08,26,3.60
2015,02,18,08,27,3.60
2015,02,18,08,28,3.60
2015,02,18,08,29,3.70
2015,02,18,08,30,3.70
2015,02,18,08,31,3.70
2015,02,18,08,32,3.70
2015,02,18,08,33,3.70
2015,02,18,08,34,3.80
2015,02,18,08,35,3.80
2015,02,18,08,36,3.80
2015,02,18,08,37,3.80
2015,02,18,08,38,3.80
2015,02,18,08,39,3.90
2015,02,18,08,40,3.90
2015,02,18,08,41,3.90
2015,02,18,08,42,3.90
2015,02,18,08,43,4.00
2015,02,18,08,44,4.00
2015,02,18,08,45,4.00
2015,02,18,08,46,4.10
2015,02,18,08,47,4.10
2015,02,18,08,48,4.10
2015,02,18,08,49,4.10
2015,02,18,08,50,4.20
2015,02,18,08,51,4.20
2015,02,18,08,52,4.30
2015,02,18,08,53,4.30
2015,02,18,08,54,4.40
2015,02,18,08,55,4.50
2015,02,18,08,56,4.50
2015,02,18,08,57,4.60
2015,02,18,08,58,4.70
2015,02,18,08,59,4.70
2015,02,18,09,00,4.80
2015,02,18,09,01,4.90
2015,02,18,09,02,5.00
2015,02,18,09,03,5.10
2015,02,18,09,04,5.10
2015,02,18,09,05,5.20
2015,02,18,09,06,5.20
2015,02,18,09,07,5.30
2015,02,18,09,08,5.40
2015,02,18,09,09,5.50
2015,02,18,09,10,5.60
2015,02,18,09,11,5.70
2015,02,18,09,12,5.80
2015,02,18,09,13,5.90
2015,02,18,09,14,6.10
2015,02,18,09,15,6.20
2015,02,18,09,16,6.30
2015,02,18,09,17,6.50
2015,02,18,09,18,6.60
2015,02,18,09,19,6.70
2015,02,18,09,20,6.80
2015,02,18,09,21,7.00
2015,02,18,09,22,7.10
2015,02,18,09,23,7.20
2015,02,18,09,24,7.30
2015,02,18,09,25,7.40
2015,02,18,09,26,7.50
2015,02,18,09,27,7.70
2015,02,18,09,28,7.70
2015,02,18,09,29,7.80
2015,02,18,09,30,7.90
2015,02,18,09,31,8.00
2015,02,18,09,32,8.00
2015,02,18,09,33,8.10
2015,02,18,09,34,8.20
2015,02,18,09,35,8.20
2015,02,18,09,36,8.30
2015,02,18,09,37,8.40
2015,02,18,09,38,8.40
2015,02,18,09,39,8.50
2015,02,18,09,40,8.60
2015,02,18,09,41,8.70
2015,02,18,09,42,8.70
2015,02,18,09,43,8.80
2015,02,18,09,44,8.80
2015,02,18,09,45,8.80
2015,02,18,09,46,8.80
2015,02,18,09,47,8.90
2015,02,18,09,48,9.00
2015,02,18,09,49,9.00
2015,02,18,09,50,9.10
2015,02,18,09,51,9.10
2015,02,18,09,52,9.10
2015,02,18,09,53,9.20
2015,02,18,09,54,9.20
2015,02,18,09,55,9.20
2015,02,18,09,56,9.30
2015,02,18,09,57,9.30
2015,02,18,09,58,9.30
2015,02,18,09,59,9.30
2015,02,18,10,00,9.30
2015,02,18,10,01,9.30
2015,02,18,10,02,9.30
2015,02,18,10,03,9.40
2015,02,18,10,04,9.40
2015,02,18,10,05,9.40
2015,02,18,10,06,9.40
2015,02,18,10,07,9.40
2015,02,18,10,08,9.40
2015,02,18,10,09,9.40
2015,02,18,10,10,9.40
2015,02,18,10,11,9.40
2015,02,18,10,12,9.40
2015,02,18,10,13,9.50
2015,02,18,10,14,9.60
2015,02,18,10,15,9.70
2015,02,18,10,16,9.80
2015,02,18,10,17,9.80
2015,02,18,10,18,9.90
2015,02,18,10,19,9.90
2015,02,18,10,20,9.90
2015,02,18,10,21,9.80
2015,02,18,10,22,9.80
2015,02,18,10,23,9.70
2015,02,18,10,24,9.70
2015,02,18,10,25,9.70
2015,02,18,10,26,9.70
2015,02,18,10,27,9.70
2015,02,18,10,28,9.70
2015,02,18,10,29,9.70
2015,02,18,10,30,9.80
2015,02,18,10,31,9.80
2015,02,18,10,32,9.80
2015,02,18,10,33,9.80
2015,02,18,10,34,9.80
2015,02,18,10,35,9.80
2015,02,18,10,36,9.80
2015,02,18,10,37,9.80
2015,02,18,10,38,9.80
2015,02,18,10,39,9.80
2015,02,18,10,40,9.80
2015,02,18,10,41,9.80
2015,02,18,10,42,9.80
2015,02,18,10,43,9.80
2015,02,18,10,44,9.80
2015,02,18,10,45,9.90
2015,02,18,10,46,9.90
2015,02,18,10,47,9.90
2015,02,18,10,48,10.00
2015,02,18,10,49,10.00
2015,02,18,10,50,10.10
2015,02,18,10,51,10.10
2015,02,18,10,52,10.10
2015,02,18,10,53,10.10
2015,02,18,10,54,10.10
2015,02,18,10,55,10.00
2015,02,18,10,56,10.10
2015,02,18,10,57,10.10
2015,02,18,10,58,10.10
2015,02,18,10,59,10.10
2015,02,18,11,00,10.10
2015,02,18,11,01,10.10
2015,02,18,11,02,10.10
2015,02,18,11,03,10.10
2015,02,18,11,04,10.10
2015,02,18,11,05,10.10
2015,02,18,11,06,10.10
2015,02,18,11,07,10.10
2015,02,18,11,08,10.20
2015,02,18,11,09,10.20
2015,02,18,11,10,10.10
2015,02,18,11,11,10.10
2015,02,18,11,12,10.10
2015,02,18,11,13,10.10
2015,02,18,11,14,10.10
2015,02,18,11,15,10.10
2015,02,18,11,16,10.00
2015,02,18,11,17,10.00
2015,02,18,11,18,10.00
2015,02,18,11,19,10.10
2015,02,18,11,20,10.10
2015,02,18,11,21,10.20
2015,02,18,11,22,10.20
2015,02,18,11,23,10.20
2015,02,18,11,24,10.30
2015,02,18,11,25,10.30
2015,02,18,11,26,10.30
2015,02,18,11,27,10.40
2015,02,18,11,28,10.40
2015,02,18,11,29,10.40
2015,02,18,11,30,10.40
2015,02,18,11,31,10.40
2015,02,18,11,32,10.40
2015,02,18,11,33,10.30
2015,02,18,11,34,10.30
2015,02,18,11,35,10.30
2015,02,18,11,36,10.30
2015,02,18,11,37,10.30
2015,02,18,11,38,10.40
2015,02,18,11,39,10.40
2015,02,18,11,40,10.50
2015,02,18,11,41,10.60
2015,02,18,11,42,10.60
2015,02,18,11,43,10.70
2015,02,18,11,44,10.70
2015,02,18,11,45,10.80
2015,02,18,11,46,10.80
2015,02,18,11,47,10.90
2015,02,18,11,48,10.90
2015,02,18,11,49,11.00
2015,02,18,11,50,11.00
2015,02,18,11,51,11.00
2015,02,18,11,52,11.10
2015,02,18,11,53,11.10
2015,02,18,11,54,11.10
2015,02,18,11,55,11.20
2015,02,18,11,56,11.20
2015,02,18,11,57,11.20
2015,02,18,11,58,11.20
2015,02,18,11,59,11.20
2015,02,18,12,00,11.20
2015,02,18,12,01,11.20
2015,02,18,12,02,11.20
2015,02,18,12,03,11.20
2015,02,18,12,04,11.20
2015,02,18,12,05,11.20
2015,02,18,12,06,11.30
2015,02,18,12,07,11.30
2015,02,18,12,08,11.30
2015,02,18,12,09,11.30
2015,02,18,12,10,11.30
2015,02,18,12,11,11.30
2015,02,18,12,12,11.40
2015,02,18,12,13,11.40
2015,02,18,12,14,11.40
2015,02,18,12,15,11.40
2015,02,18,12,16,11.40
2015,02,18,12,17,11.40
2015,02,18,12,18,11.40
2015,02,18,12,19,11.40
2015,02,18,12,20,11.30
2015,02,18,12,21,11.30
2015,02,18,12,22,11.30
2015,02,18,12,23,11.30
2015,02,18,12,24,11.30
2015,02,18,12,25,11.30
2015,02,18,12,26,11.20
2015,02,18,12,27,11.20
2015,02,18,12,28,11.30
2015,02,18,12,29,11.30
2015,02,18,12,30,11.30
2015,02,18,12,31,11.30
2015,02,18,12,32,11.30
2015,02,18,12,33,11.40
2015,02,18,12,34,11.50
2015,02,18,12,35,11.50
2015,02,18,12,36,11.60
2015,02,18,12,37,11.60
2015,02,18,12,38,11.70
2015,02,18,12,39,11.70
2015,02,18,12,40,11.70
2015,02,18,12,41,11.80
2015,02,18,12,42,11.80
2015,02,18,12,43,11.80
2015,02,18,12,44,11.70
2015,02,18,12,45,11.70
2015,02,18,12,46,11.60
2015,02,18,12,47,11.60
2015,02,18,12,48,11.50
2015,02,18,12,49,11.40
2015,02,18,12,50,11.30
2015,02,18,12,51,11.30
2015,02,18,12,52,11.30
2015,02,18,12,53,11.30
2015,02,18,12,54,11.20
2015,02,18,12,55,11.10
2015,02,18,12,56,11.00
2015,02,18,12,57,11.00
2015,02,18,12,58,10.90
2015,02,18,12,59,10.90
2015,02,18,13,00,10.90
2015,02,18,13,01,10.90
2015,02,18,13,02,11.00
2015,02,18,13,03,11.00
2015,02,18,13,04,11.10
2015,02,18,13,05,11.10
2015,02,18,13,06,11.20
2015,02,18,13,07,11.20
2015,02,18,13,08,11.30
2015,02,18,13,09,11.40
2015,02,18,13,10,11.40
2015,02,18,13,11,11.50
2015,02,18,13,12,11.60
2015,02,18,13,13,11.70
2015,02,18,13,14,11.70
2015,02,18,13,15,11.80
2015,02,18,13,16,11.80
2015,02,18,13,17,11.90
2015,02,18,13,18,11.90
2015,02,18,13,19,12.00
2015,02,18,13,20,12.00
2015,02,18,13,21,12.00
2015,02,18,13,22,12.00
2015,02,18,13,23,12.10
2015,02,18,13,24,12.10
2015,02,18,13,25,12.10
2015,02,18,13,26,12.10
2015,02,18,13,27,12.10
2015,02,18,13,28,12.00
2015,02,18,13,29,12.00
2015,02,18,13,30,12.10
2015,02,18,13,31,12.10
2015,02,18,13,32,12.10
2015,02,18,13,33,12.20
2015,02,18,13,34,12.20
2015,02,18,13,35,12.20
2015,02,18,13,36,12.20
2015,02,18,13,37,12.20
2015,02,18,13,38,12.10
2015,02,18,13,39,12.10
2015,02,18,13,40,12.00
2015,02,18,13,41,12.00
2015,02,18,13,42,12.00
2015,02,18,13,43,12.00
2015,02,18,13,44,12.00
2015,02,18,13,45,12.10
2015,02,18,13,46,12.10
2015,02,18,13,47,12.10
2015,02,18,13,48,12.10
2015,02,18,13,49,12.10
2015,02,18,13,50,12.20
2015,02,18,13,51,12.20
2015,02,18,13,52,12.20
2015,02,18,13,53,12.30
2015,02,18,13,54,12.30
2015,02,18,13,55,12.30
2015,02,18,13,56,12.40
2015,02,18,13,57,12.40
2015,02,18,13,58,12.40
2015,02,18,13,59,12.40
2015,02,18,14,00,12.40
2015,02,18,14,01,12.40
2015,02,18,14,02,12.40
2015,02,18,14,03,12.40
2015,02,18,14,04,12.40
2015,02,18,14,05,12.50
2015,02,18,14,06,12.40
2015,02,18,14,07,12.40
2015,02,18,14,08,12.40
2015,02,18,14,09,12.40
2015,02,18,14,10,12.40
2015,02,18,14,11,12.40
2015,02,18,14,12,12.40
2015,02,18,14,13,12.40
2015,02,18,14,14,12.40
2015,02,18,14,15,12.40
2015,02,18,14,16,12.40
2015,02,18,14,17,12.40
2015,02,18,14,18,12.40
2015,02,18,14,19,12.40
2015,02,18,14,20,12.30
2015,02,18,14,21,12.30
2015,02,18,14,22,12.30
2015,02,18,14,23,12.20
2015,02,18,14,24,12.20
2015,02,18,14,25,12.10
2015,02,18,14,26,12.10
2015,02,18,14,27,12.10
2015,02,18,14,28,12.00
2015,02,18,14,29,11.90
2015,02,18,14,30,11.90
2015,02,18,14,31,11.90
2015,02,18,14,32,11.80
2015,02,18,14,33,11.80
2015,02,18,14,34,11.80
2015,02,18,14,35,11.70
2015,02,18,14,36,11.70
2015,02,18,14,37,11.70
2015,02,18,14,38,11.70
2015,02,18,14,39,11.70
2015,02,18,14,40,11.60
2015,02,18,14,41,11.60
2015,02,18,14,42,11.60
2015,02,18,14,43,11.60
2015,02,18,14,44,11.60
2015,02,18,14,45,11.60
2015,02,18,14,46,11.60
2015,02,18,14,47,11.60
2015,02,18,14,48,11.60
2015,02,18,14,49,11.60
2015,02,18,14,50,11.60
2015,02,18,14,51,11.70
2015,02,18,14,52,11.70
2015,02,18,14,53,11.70
2015,02,18,14,54,11.70
2015,02,18,14,55,11.60
2015,02,18,14,56,11.60
2015,02,18,14,57,11.60
2015,02,18,14,58,11.60
2015,02,18,14,59,11.50
2015,02,18,15,00,11.50
2015,02,18,15,01,11.50
2015,02,18,15,02,11.40
2015,02,18,15,03,11.40
2015,02,18,15,04,11.40
2015,02,18,15,05,11.40
2015,02,18,15,06,11.40
2015,02,18,15,07,11.40
2015,02,18,15,08,11.30
2015,02,18,15,09,11.30
2015,02,18,15,10,11.30
2015,02,18,15,11,11.30
2015,02,18,15,12,11.20
2015,02,18,15,13,11.20
2015,02,18,15,14,11.20
2015,02,18,15,15,11.20
2015,02,18,15,16,11.20
2015,02,18,15,17,11.20
2015,02,18,15,18,11.20
2015,02,18,15,19,11.20
2015,02,18,15,20,11.20
2015,02,18,15,21,11.20
2015,02,18,15,22,11.20
2015,02,18,15,23,11.20
2015,02,18,15,24,11.20
2015,02,18,15,25,11.20
2015,02,18,15,26,11.20
2015,02,18,15,27,11.20
2015,02,18,15,28,11.20
2015,02,18,15,29,11.20
2015,02,18,15,30,11.20
2015,02,18,15,31,11.20
2015,02,18,15,32,11.20
2015,02,18,15,33,11.20
2015,02,18,15,34,11.20
2015,02,18,15,35,11.20
2015,02,18,15,36,11.20
2015,02,18,15,37,11.10
2015,02,18,15,38,11.10
2015,02,18,15,39,11.10
2015,02,18,15,40,11.10
2015,02,18,15,41,11.00
2015,02,18,15,42,11.00
2015,02,18,15,43,11.00
2015,02,18,15,44,11.00
2015,02,18,15,45,11.00
2015,02,18,15,46,11.00
2015,02,18,15,47,10.90
2015,02,18,15,48,10.90
2015,02,18,15,49,10.90
2015,02,18,15,50,10.90
2015,02,18,15,51,10.90
2015,02,18,15,52,10.90
2015,02,18,15,53,10.90
2015,02,18,15,54,10.90
2015,02,18,15,55,10.90
2015,02,18,15,56,10.90
2015,02,18,15,57,10.90
2015,02,18,15,58,10.90
2015,02,18,15,59,10.90
2015,02,18,16,00,10.90
2015,02,18,16,01,10.90
2015,02,18,16,02,10.90
2015,02,18,16,03,10.90
2015,02,18,16,04,10.90
2015,02,18,16,05,10.90
2015,02,18,16,06,10.90
2015,02,18,16,07,10.90
2015,02,18,16,08,10.90
2015,02,18,16,09,10.90
2015,02,18,16,10,10.90
2015,02,18,16,11,10.90
2015,02,18,16,12,10.90
2015,02,18,16,13,10.90
2015,02,18,16,14,10.90
2015,02,18,16,15,10.90
2015,02,18,16,16,10.90
2015,02,18,16,17,10.90
2015,02,18,16,18,10.90
2015,02,18,16,19,10.90
2015,02,18,16,20,10.90
2015,02,18,16,21,10.90
2015,02,18,16,22,10.90
2015,02,18,16,23,10.90
2015,02,18,16,24,10.90
2015,02,18,16,25,10.90
2015,02,18,16,26,10.90
2015,02,18,16,27,10.90
2015,02,18,16,28,10.90
2015,02,18,16,29,11.00
2015,02,18,16,30,11.00
2015,02,18,16,31,11.10
2015,02,18,16,32,11.10
2015,02,18,16,33,11.10
2015,02,18,16,34,11.20
2015,02,18,16,35,11.20
2015,02,18,16,36,11.20
2015,02,18,16,37,11.30
2015,02,18,16,38,11.30
2015,02,18,16,39,11.30
2015,02,18,16,40,11.30
2015,02,18,16,41,11.30
2015,02,18,16,42,11.30
2015,02,18,16,43,11.30
2015,02,18,16,44,11.30
2015,02,18,16,45,11.30
2015,02,18,16,46,11.30
2015,02,18,16,47,11.30
2015,02,18,16,48,11.20
2015,02,18,16,49,11.20
2015,02,18,16,50,11.20
2015,02,18,16,51,11.20
2015,02,18,16,52,11.20
2015,02,18,16,53,11.10
2015,02,18,16,54,11.10
2015,02,18,16,55,11.10
2015,02,18,16,56,11.10
2015,02,18,16,57,11.10
2015,02,18,16,58,11.10
2015,02,18,16,59,11.10
2015,02,18,17,00,11.00
2015,02,18,17,01,11.00
2015,02,18,17,02,11.00
2015,02,18,17,03,10.90
2015,02,18,17,04,10.90
2015,02,18,17,05,10.90
2015,02,18,17,06,10.90
2015,02,18,17,07,10.90
2015,02,18,17,08,10.90
2015,02,18,17,09,10.90
2015,02,18,17,10,10.90
2015,02,18,17,11,10.90
2015,02,18,17,12,10.90
2015,02,18,17,13,10.90
2015,02,18,17,14,10.90
2015,02,18,17,15,10.90
2015,02,18,17,16,10.90
2015,02,18,17,17,10.80
2015,02,18,17,18,10.80
2015,02,18,17,19,10.80
2015,02,18,17,20,10.80
2015,02,18,17,21,10.80
2015,02,18,17,22,10.80
2015,02,18,17,23,10.80
2015,02,18,17,24,10.80
2015,02,18,17,25,10.80
2015,02,18,17,26,10.80
2015,02,18,17,27,10.70
2015,02,18,17,28,10.70
2015,02,18,17,29,10.70
2015,02,18,17,30,10.70
2015,02,18,17,31,10.70
2015,02,18,17,32,10.70
2015,02,18,17,33,10.70
2015,02,18,17,34,10.70
2015,02,18,17,35,10.70
2015,02,18,17,36,10.60
2015,02,18,17,37,10.60
2015,02,18,17,38,10.60
2015,02,18,17,39,10.60
2015,02,18,17,40,10.60
2015,02,18,17,41,10.70
2015,02,18,17,42,10.70
2015,02,18,17,43,10.70
2015,02,18,17,44,10.70
2015,02,18,17,45,10.70
2015,02,18,17,46,10.70
2015,02,18,17,47,10.70